Wind_Speed
20 11 12 15 16 19 20 20 19 16 16 17 15 13 16 14 11 17 16 17 20 15 16 17 12 15 14 11 11 12 13 12 13 15 14 13 13 13 13 14 14 14 19 22 20 21 22 23 23 20 19 18 18 20 17 15 13 12 11 11 12 13 11 10 10 8 6 7 7 7 6 5 3 3 6 7 6 6 5 5 4 4 3 3 3 3
19 13 16 20 19 20 21 21 19 19 20 17 14 13 14 14 12 17 16 17 20 13 14 13 12 15 14 12 11 11 11 10 12 15 15 15 15 14 17 19 15 14 18 19 19 21 23 23 22 19 18 18 18 17 15 14 14 13 13 13 13 13 11 10 10 8 6 6 6 5 4 3 2 2 4 5 5 5 4 3 4 5 5 5 6 7
16 15 20 21 18 19 21 21 19 21 22 15 12 12 11 13 12 15 17 18 19 11 10 16 14 11 13 13 11 10 9 9 11 14 15 16 17 19 21 21 19 17 17 17 17 19 21 22 21 19 19 18 17 17 16 16 16 16 15 15 14 13 11 10 10 9 6 6 6 3 2 1 2 4 4 5 4 3 2 3 5 5 5 6 7 8
14 15 19 20 19 21 21 21 20 18 17 14 12 11 10 14 14 12 16 19 18 10 8 15 12 8 11 11 9 11 10 9 10 11 13 14 16 20 23 24 22 18 17 18 17 17 18 22 23 21 22 22 20 21 21 19 18 18 17 16 14 13 12 10 9 8 6 6 5 4 2 3 5 5 3 2 2 3 3 3 3 3 4 6 7 9
15 14 18 21 21 22 21 21 22 15 12 15 16 13 10 15 18 12 10 15 15 12 11 13 9 5 8 8 9 10 11 11 11 11 12 15 15 18 22 24 22 19 19 20 20 18 19 23 24 23 24 24 22 23 22 20 19 18 17 16 14 13 12 9 9 8 6 5 4 3 2 3 5 3 1 1 3 5 4 3 3 4 6 7 8 9
15 17 20 22 21 23 22 19 20 16 11 14 17 18 14 16 21 15 12 13 9 11 13 14 7 3 5 7 9 9 9 10 12 12 14 17 17 19 22 23 23 22 22 21 21 21 20 21 23 24 24 22 21 23 22 21 19 18 18 17 14 13 13 11 10 10 8 6 4 2 2 3 4 3 2 2 2 3 4 4 4 5 6 6 6 5
12 19 21 21 22 24 22 16 19 20 12 10 14 18 16 15 21 19 16 13 8 9 12 14 7 3 3 6 9 9 8 10 12 11 13 17 21 21 21 24 28 27 24 22 21 21 21 22 25 26 24 23 21 22 23 21 20 20 19 18 15 15 15 13 12 10 8 6 5 4 4 6 6 5 5 4 4 4 5 5 5 5 6 5 2 1
13 21 21 22 23 20 17 14 18 22 15 9 13 17 19 18 21 17 14 10 8 8 11 13 10 4 4 7 9 10 9 10 12 11 12 16 21 22 21 23 28 29 26 24 23 22 21 23 27 27 26 26 24 23 24 22 21 21 21 19 17 16 16 13 10 9 8 7 6 5 6 9 7 6 6 7 6 6 6 5 6 6 3 1 2 4
17 21 21 23 21 15 16 16 18 22 16 9 14 19 19 17 14 15 13 9 10 9 9 13 13 7 5 7 9 11 11 11 13 14 13 14 16 16 18 20 21 24 25 24 23 23 22 22 25 26 28 28 24 24 25 23 22 22 21 21 19 17 16 13 11 11 9 8 7 7 7 8 8 7 6 7 7 7 6 6 7 5 2 5 5 6
15 20 22 21 17 13 17 19 18 20 15 12 17 20 16 11 9 12 13 10 10 9 10 13 14 9 5 8 10 9 10 11 12 12 13 16 15 11 18 23 18 18 22 22 21 22 23 22 21 25 29 27 24 24 25 24 23 22 22 21 21 18 16 14 12 11 9 9 10 11 9 9 9 8 6 5 5 3 3 3 4 1 4 8 7 7
15 21 21 18 16 14 17 19 19 20 18 16 16 16 13 9 7 9 11 9 7 8 11 14 16 12 7 8 11 10 12 14 13 12 13 15 16 13 18 22 18 18 21 22 20 20 22 21 20 24 29 28 27 26 25 25 24 22 21 21 21 19 15 12 11 9 8 8 11 11 10 8 7 7 5 3 1 2 2 1 1 3 6 9 8 8
18 20 16 16 21 19 16 17 17 18 20 17 12 10 10 8 4 4 6 6 6 7 12 15 17 15 9 7 11 13 15 16 14 15 15 16 19 19 20 22 22 22 22 22 21 21 22 22 21 23 27 28 27 25 24 24 23 21 21 20 20 19 15 11 9 8 7 7 9 10 10 9 7 6 7 6 5 5 4 2 2 4 8 10 8 8
15 17 15 16 24 24 16 14 12 13 16 16 12 10 10 8 5 5 5 5 7 9 11 14 16 14 9 8 15 17 16 18 17 16 19 21 22 23 23 26 26 24 24 22 22 24 24 24 23 23 26 26 24 23 23 23 22 20 19 18 19 19 17 12 10 10 9 7 7 8 9 10 9 8 8 9 8 7 6 5 4 6 9 10 9 9
12 17 21 19 20 23 18 12 11 12 15 16 13 11 10 8 7 8 7 7 8 9 12 15 14 11 7 7 18 21 18 22 23 21 23 25 26 27 26 27 26 25 25 21 21 23 24 24 24 23 25 25 24 24 23 22 21 19 17 16 16 17 16 12 10 10 10 8 8 7 8 10 12 11 10 10 9 9 8 7 6 9 10 11 10 9
12 14 18 16 13 19 19 14 12 12 14 14 13 12 10 9 8 7 7 8 8 9 12 14 10 7 6 5 13 18 18 22 25 26 28 25 25 28 26 25 26 26 24 20 20 22 22 24 24 24 24 24 24 23 23 22 21 18 16 15 15 15 15 12 9 9 9 9 9 9 9 10 11 11 11 10 10 9 9 8 9 11 12 11 11 10
12 10 13 15 13 16 18 15 14 14 12 11 12 11 9 10 8 5 7 6 4 6 8 8 3 1 2 5 9 13 15 19 22 24 31 28 24 25 25 24 25 26 24 21 21 22 22 23 24 24 24 22 22 22 22 23 23 20 17 16 16 15 14 12 9 9 9 8 7 9 11 11 11 10 10 10 11 11 10 10 11 13 13 12 11 10
10 9 16 20 18 21 21 17 15 14 10 8 11 12 10 13 10 5 7 4 1 5 6 6 3 5 5 5 9 14 15 17 18 21 28 29 28 26 25 26 26 25 24 22 23 24 23 22 23 23 22 22 23 23 24 25 24 20 18 17 16 14 13 11 10 9 9 8 8 9 11 12 12 10 11 11 11 11 11 13 14 14 13 12 12 12
9 8 17 23 19 22 26 22 18 16 13 8 10 12 10 12 11 6 6 4 3 6 5 8 9 7 7 5 8 15 16 13 15 20 23 25 27 25 24 27 26 25 25 24 25 25 22 21 21 21 21 23 25 25 24 23 21 19 18 17 16 15 13 11 9 8 8 9 10 11 11 12 12 11 12 12 12 13 15 16 16 14 13 13 13 13
10 6 13 21 19 19 22 21 15 16 18 14 10 11 9 9 9 6 5 5 6 7 5 9 14 9 8 7 9 14 16 14 12 13 19 22 23 24 24 25 25 25 27 27 27 25 22 21 21 21 22 23 25 25 24 22 21 19 18 17 16 15 13 10 9 8 8 9 11 13 14 13 12 12 12 13 14 16 17 16 15 14 14 14 14 14
8 4 9 18 18 16 15 12 10 13 17 17 13 11 9 7 8 8 5 5 6 6 5 9 11 8 7 9 13 14 14 18 14 10 14 19 23 25 25 25 25 26 28 30 28 26 25 23 21 22 24 25 24 24 23 23 22 20 18 17 15 13 11 10 11 12 12 12 13 15 15 14 13 13 14 16 17 18 17 16 15 15 14 14 14 15
6 4 8 13 15 14 10 9 11 12 12 14 12 11 10 8 7 8 7 6 6 6 5 7 7 6 5 8 15 16 14 20 19 14 13 18 24 26 25 26 26 27 29 29 28 27 28 27 25 26 26 25 24 23 23 23 22 20 19 17 14 11 10 11 13 14 15 16 16 16 16 15 14 16 18 19 18 18 16 16 15 15 16 16 15 15
3 4 7 9 11 12 12 13 14 12 12 11 8 9 11 9 8 9 8 7 7 6 6 6 5 5 3 6 13 14 12 17 21 19 16 20 26 27 26 28 28 28 29 29 28 29 30 30 29 29 26 25 24 22 23 22 20 20 18 14 11 10 11 12 13 15 16 17 17 16 16 17 18 19 20 19 18 17 17 16 16 15 16 17 16 15
2 4 7 9 11 12 14 17 16 14 14 14 11 9 10 9 9 8 7 8 8 7 6 6 5 1 3 5 11 11 12 19 24 23 20 23 27 27 28 29 29 28 28 29 30 31 31 31 30 29 26 24 23 22 22 21 21 20 15 11 12 11 12 14 15 16 17 17 16 17 18 20 20 20 19 18 18 17 17 18 17 16 16 17 17 16
4 5 7 8 9 10 13 16 17 16 13 13 12 10 8 10 12 9 6 6 5 6 6 5 4 1 4 2 6 8 16 22 26 28 26 24 26 26 28 30 30 30 30 30 31 31 32 31 30 27 25 24 23 22 23 22 21 18 11 11 16 13 11 16 18 17 17 17 18 19 20 21 21 20 19 18 18 17 18 18 18 17 17 16 17 16
5 5 6 8 8 9 11 13 15 16 11 9 10 10 11 13 14 11 7 5 4 8 11 7 3 4 2 4 5 8 14 17 21 29 30 26 26 26 29 32 32 31 32 32 32 33 32 30 29 26 25 24 24 24 24 21 21 19 14 15 18 14 13 18 20 19 19 19 20 21 21 21 20 19 18 18 18 18 19 18 18 17 17 16 16 16
7 5 6 9 9 10 11 11 11 12 9 8 11 14 15 16 13 11 7 6 6 9 12 8 1 5 5 7 9 10 11 12 17 26 28 27 28 28 29 33 34 33 33 33 33 33 32 29 28 27 25 25 25 25 24 22 20 19 19 18 17 15 17 20 20 21 21 22 22 22 21 21 20 19 18 18 18 18 18 18 18 17 17 16 16 15
5 4 7 10 10 9 9 9 11 12 11 11 13 16 17 16 14 11 7 6 6 6 8 7 3 8 7 7 9 9 11 11 15 22 25 26 29 29 29 32 36 35 33 32 32 32 32 30 28 27 25 26 26 25 24 22 20 19 20 20 18 17 19 20 21 23 24 23 22 21 21 20 19 19 19 19 19 18 18 18 17 18 17 16 15 14
3 5 8 11 11 13 12 13 15 15 15 15 13 14 16 16 15 10 7 7 7 5 7 7 8 10 8 7 8 8 9 11 12 18 24 26 28 28 28 31 36 36 33 32 32 31 31 29 28 27 26 26 26 25 23 22 21 20 19 21 21 20 20 21 22 24 24 23 22 21 21 20 19 19 19 19 18 18 17 17 16 17 16 16 15 14
3 6 8 10 11 12 13 15 16 14 15 16 15 13 14 17 16 11 8 11 10 7 6 6 11 11 8 10 10 7 9 13 15 19 24 27 27 27 29 32 34 35 34 32 31 31 31 30 29 29 28 27 26 26 25 23 23 22 21 21 21 20 21 22 23 24 23 22 22 21 21 20 19 19 19 19 18 18 17 17 17 16 16 15 16 15
4 6 7 10 10 6 6 9 12 14 15 15 15 14 12 14 16 14 12 11 10 9 8 5 8 10 9 10 9 9 12 15 18 23 26 28 28 28 30 31 32 33 33 32 32 32 31 31 31 30 29 29 28 27 26 24 23 23 23 22 21 21 22 23 24 23 23 22 21 21 21 20 20 19 19 18 18 17 17 17 17 17 16 16 15 15
3 4 7 9 6 4 4 5 9 14 16 14 14 16 13 12 13 14 13 10 8 9 9 7 6 6 6 10 12 14 18 18 18 22 26 28 30 31 32 31 32 33 32 32 32 31 31 31 32 31 30 30 29 28 27 25 24 24 24 23 22 23 24 24 24 23 22 22 21 21 21 20 20 19 18 18 17 17 17 17 17 16 16 16 15 15
3 3 6 7 3 3 3 6 8 9 14 15 16 18 17 13 10 10 10 8 7 8 9 9 7 4 3 9 13 16 19 19 18 21 24 26 30 34 34 33 34 34 34 34 33 33 33 32 32 33 32 31 30 29 28 27 26 26 25 24 24 25 25 24 24 23 22 21 21 21 20 20 19 19 18 18 17 17 17 17 17 17 16 16 15 14
5 4 5 6 4 4 5 6 5 4 7 9 9 11 13 13 11 9 8 8 8 7 7 6 5 3 2 4 10 15 17 17 19 24 26 27 28 30 30 31 33 33 34 34 33 34 34 34 34 33 32 32 31 29 28 28 27 26 26 26 26 26 25 25 24 23 22 22 20 20 20 19 19 19 18 18 18 18 18 17 18 17 16 16 15 14
8 6 5 6 5 6 9 7 4 4 6 3 2 5 8 11 13 13 11 10 8 7 6 5 5 5 4 4 10 14 15 16 20 23 24 26 28 29 29 31 32 33 33 33 33 33 34 34 34 33 33 33 32 29 28 28 27 27 27 28 27 27 26 25 25 23 23 22 21 20 20 19 19 20 19 19 19 18 18 17 18 17 17 16 16 15
8 6 5 5 5 6 9 8 6 6 4 2 6 6 8 8 9 11 12 14 14 12 11 9 9 9 8 6 14 18 15 15 19 20 21 24 28 31 32 32 34 35 35 34 34 34 35 35 35 34 34 33 31 30 29 28 28 28 29 28 28 27 27 26 25 24 23 22 22 21 21 20 20 20 19 18 17 17 16 16 16 16 16 16 16 15
7 5 3 4 5 6 6 7 6 3 4 4 4 3 5 7 7 5 7 11 13 13 13 12 12 12 10 8 16 23 22 19 19 20 23 27 29 31 33 34 35 36 36 36 36 36 37 37 36 36 35 34 32 32 31 29 30 30 30 29 28 28 27 26 26 25 24 23 22 21 21 21 20 19 18 17 16 16 16 16 16 16 16 16 16 15
7 6 3 3 5 6 6 7 5 4 4 4 1 3 3 5 6 4 4 7 8 9 10 12 13 13 11 12 15 20 25 23 16 15 22 28 30 32 34 33 34 35 36 34 35 37 38 37 38 38 37 35 34 33 32 31 31 31 30 30 29 28 28 27 26 26 25 24 23 22 21 21 20 19 18 17 17 18 18 16 16 15 14 14 14 13
8 7 4 3 4 5 6 7 6 4 4 6 8 8 6 5 5 5 5 5 6 10 11 11 12 12 10 12 13 15 20 16 8 10 21 29 30 31 30 29 31 34 34 33 35 37 37 37 38 38 37 36 35 33 32 32 32 32 31 31 29 29 28 28 28 28 26 24 23 22 21 21 21 20 18 17 18 18 17 16 15 14 13 12 12 10
9 7 6 4 4 5 6 5 5 5 3 4 9 12 9 5 3 3 5 6 6 11 15 13 10 10 12 11 8 14 13 9 6 11 22 29 30 30 29 29 32 34 32 33 37 38 36 37 39 39 38 37 36 34 33 33 32 32 31 30 30 30 29 29 29 28 26 24 23 22 22 21 21 20 18 18 18 18 17 16 15 14 12 11 10 8
10 6 6 6 5 5 5 4 3 2 1 5 9 10 9 7 5 4 6 4 2 6 15 18 14 12 16 14 12 12 8 7 4 11 26 32 30 29 30 33 37 35 32 34 37 36 37 39 40 40 40 39 37 36 34 33 32 31 31 30 30 30 29 29 28 27 26 25 24 23 22 22 21 20 19 19 19 18 17 16 14 12 10 8 7 7
8 6 5 6 6 6 6 5 4 2 3 7 10 10 9 8 6 6 4 1 6 7 5 13 17 17 18 14 14 11 6 2 1 13 30 35 30 30 32 35 36 34 33 37 36 35 38 41 41 41 42 40 38 36 34 33 32 32 31 31 30 29 29 29 28 27 26 26 24 23 23 22 21 20 19 19 19 18 16 15 14 13 11 10 10 9
6 5 5 6 6 5 5 6 5 2 1 4 9 12 11 6 3 2 1 3 6 9 10 8 10 16 18 14 16 11 6 9 9 21 32 32 30 33 34 35 36 34 35 38 37 37 40 41 40 40 40 38 37 36 35 34 33 32 31 30 30 29 29 29 28 28 27 26 25 24 23 23 22 20 19 20 19 17 16 15 14 12 11 10 10 9
5 6 6 5 5 5 5 6 6 3 1 6 10 10 8 4 1 2 2 2 4 7 10 8 6 11 12 10 15 12 10 13 19 27 30 28 31 34 34 35 37 36 38 41 41 40 41 41 39 37 37 36 35 34 33 33 32 31 30 30 30 30 29 29 29 28 27 26 26 25 24 24 22 21 20 20 19 17 16 15 14 11 10 9 9 7
5 4 5 4 4 5 5 3 2 1 3 6 7 4 3 3 3 4 4 3 6 8 7 4 4 7 1 12 17 13 12 15 19 24 27 27 31 33 33 35 37 37 40 43 43 42 42 43 39 36 35 35 34 33 32 32 32 32 30 30 31 30 30 30 29 29 28 27 26 26 25 24 23 21 21 20 19 18 16 14 13 11 9 7 5 4
2 0 1 1 1 1 1 3 3 3 6 8 8 5 4 5 4 3 4 5 7 7 6 3 2 5 9 16 16 13 12 14 17 22 25 27 29 30 33 36 37 39 42 44 43 42 42 41 38 35 35 35 33 32 32 32 33 33 31 31 32 32 31 30 30 30 29 27 27 26 25 24 23 21 21 20 18 16 14 14 12 9 8 8 7 5
3 1 0 1 1 1 4 5 5 6 6 6 5 4 4 3 3 3 4 5 6 7 6 1 1 4 10 14 14 12 12 14 18 21 23 25 27 29 33 37 37 39 43 43 40 38 37 37 36 36 37 35 33 32 32 31 33 33 32 32 33 32 32 31 31 30 29 28 27 26 25 24 23 21 21 19 16 14 13 14 12 8 7 8 7 6
3 2 3 3 1 1 3 5 5 6 6 4 2 2 2 1 3 4 4 5 5 4 4 2 3 6 9 11 12 11 12 15 18 20 22 24 26 27 33 38 39 41 43 40 36 35 36 37 37 37 37 36 33 33 32 31 32 32 32 33 32 32 32 32 31 31 29 28 27 25 24 24 23 22 21 18 14 13 12 11 10 9 8 8 7 7
0 4 4 4 4 3 3 5 4 4 5 4 4 3 2 2 3 4 4 5 5 4 4 3 4 7 9 10 11 12 13 15 18 20 21 24 27 28 31 35 38 41 40 36 35 36 36 37 38 38 38 36 34 33 33 32 32 32 33 33 32 32 32 32 32 31 28 27 26 25 24 24 23 23 21 18 14 13 11 10 10 10 11 12 11 10
2 2 3 3 5 4 3 5 3 2 4 2 2 1 1 1 2 3 2 4 5 5 5 4 4 6 8 9 10 11 12 14 18 19 19 23 29 30 28 30 35 38 36 33 35 36 35 36 39 40 39 37 35 34 33 32 32 32 33 32 32 32 33 33 31 30 28 27 26 25 24 23 23 22 21 18 15 15 14 14 13 13 15 16 15 14
3 1 3 3 2 1 3 2 3 1 3 3 5 4 3 1 1 0 1 2 3 4 5 6 5 5 6 7 9 11 11 12 16 19 19 22 27 29 29 31 33 34 32 31 32 33 34 37 40 41 39 36 34 34 33 32 32 32 32 32 32 32 33 33 32 29 27 27 26 25 24 23 23 21 19 18 17 17 17 17 16 16 16 16 15 15
2 2 3 2 1 2 3 1 1 3 3 1 2 4 3 2 2 1 1 1 2 4 5 6 6 6 6 7 8 10 11 11 15 19 21 22 23 25 30 34 33 32 32 33 33 34 35 37 40 40 38 36 34 34 33 32 32 33 32 31 31 32 34 34 31 29 28 27 26 26 24 23 22 20 18 18 17 16 17 19 19 16 13 12 14 14
Wind_Direction
203 206 207 209 207 205 209 213 212 219 221 207 201 198 212 224 212 225 224 177 177 197 208 214 189 143 138 139 133 137 147 145 139 145 153 157 160 158 145 140 148 157 166 169 167 159 151 151 155 158 158 161 158 152 155 158 154 158 158 155 149 142 145 143 137 140 144 151 147 140 147 159 178 151 128 128 125 127 134 141 150 159 172 188 196 206
204 214 213 208 207 207 208 214 212 219 230 219 208 202 208 224 219 221 218 170 169 200 207 186 141 135 144 131 129 143 153 163 157 155 165 163 156 155 147 144 144 143 159 166 163 161 154 149 153 157 160 160 154 150 153 154 152 154 150 149 146 139 135 129 138 153 148 144 141 134 136 123 146 165 148 147 145 153 162 173 191 198 207 213 217 226
206 219 213 205 207 209 208 213 212 218 231 233 221 210 203 219 223 221 213 174 169 205 193 150 136 144 140 124 136 159 166 175 168 161 164 159 154 156 152 149 146 145 158 163 157 160 158 152 154 161 159 153 151 152 154 154 151 148 145 144 140 133 130 126 139 151 137 130 133 129 133 138 221 231 210 177 167 189 226 244 227 228 240 240 238 240
204 214 208 203 206 210 208 208 211 217 228 236 234 220 204 209 218 223 209 178 166 194 180 142 142 140 128 134 156 173 181 172 165 163 156 158 162 161 156 150 149 153 165 165 158 157 154 153 160 166 161 154 156 154 151 152 149 146 145 141 137 133 133 135 142 146 134 123 129 148 182 252 253 257 256 222 231 244 250 270 273 272 258 245 244 247
209 206 201 204 205 208 209 203 206 214 219 230 237 231 210 205 219 228 196 166 160 187 177 131 128 135 136 161 167 175 184 163 158 169 161 163 166 161 155 152 153 161 170 168 164 159 152 155 166 169 161 158 159 154 149 150 147 144 142 139 143 143 140 145 150 149 146 133 134 163 198 251 251 250 278 281 270 260 262 277 274 253 237 235 244 248
212 202 198 205 203 205 211 204 202 208 214 223 227 231 221 205 216 210 163 155 170 200 174 129 128 176 161 179 169 166 179 166 164 174 175 168 163 163 161 158 162 171 175 169 163 161 154 154 161 161 156 155 157 155 150 147 144 142 140 140 145 147 145 147 146 142 139 134 137 157 167 196 210 185 167 203 235 261 281 271 250 247 250 257 260 256
210 202 197 204 203 202 210 209 201 203 216 218 213 230 233 218 221 206 170 171 193 210 181 152 160 182 173 199 177 163 175 175 170 172 182 172 161 169 176 170 170 174 173 163 157 157 153 150 151 152 154 153 152 152 148 144 144 143 142 143 142 143 144 144 142 140 143 152 158 160 160 175 199 199 199 224 230 244 268 266 256 262 268 273 294 34
204 201 195 200 203 198 205 210 199 200 215 214 201 221 234 237 233 202 171 185 205 220 204 187 193 180 180 201 173 166 178 180 178 174 179 175 168 176 182 173 169 171 166 158 153 151 151 149 149 151 154 153 151 149 145 146 148 145 143 145 142 137 137 142 148 152 159 163 150 151 171 181 196 206 215 231 237 242 258 270 271 278 281 272 67 80
200 202 194 196 201 194 203 211 199 200 213 210 199 214 231 247 236 190 177 197 206 224 226 204 204 199 188 189 171 172 181 187 188 178 173 181 180 173 165 160 165 170 164 156 152 147 147 146 146 149 151 152 152 147 145 148 147 144 144 144 140 135 136 145 154 152 154 160 160 173 197 209 217 223 227 234 241 247 252 256 262 279 51 95 99 101
198 204 196 193 202 198 199 208 203 201 209 208 203 210 222 241 235 207 201 202 203 224 232 206 200 208 202 178 173 177 187 194 193 184 179 179 174 163 156 155 164 173 161 152 148 145 147 145 142 146 148 150 150 147 147 148 146 145 147 147 143 139 140 148 153 150 152 168 180 190 207 224 226 223 222 227 239 254 262 258 253 257 90 102 104 102
192 202 201 192 204 206 194 205 209 199 203 216 208 199 208 223 237 231 209 197 203 227 234 213 198 208 218 181 174 184 193 191 184 183 180 165 156 162 163 157 168 178 158 146 145 144 148 146 141 145 149 150 149 149 150 148 149 151 151 152 149 145 146 153 161 160 159 172 184 195 204 209 211 203 188 175 130 97 82 22 32 96 108 110 110 106
190 195 204 191 199 206 194 203 210 190 195 222 218 185 198 212 223 241 209 195 209 220 227 218 207 212 222 192 175 182 190 187 184 181 169 158 157 160 161 162 176 178 155 145 148 147 149 146 142 144 149 150 147 146 149 150 154 156 154 154 150 146 146 153 166 159 153 167 177 188 191 184 183 171 152 133 123 121 112 92 83 109 118 120 118 113
190 192 205 194 198 203 194 196 199 180 193 222 225 193 194 195 183 205 208 209 224 228 226 218 213 216 226 202 177 177 185 182 187 183 159 156 161 158 164 171 174 166 150 148 153 151 149 146 143 143 143 145 145 146 148 149 153 153 152 153 149 145 140 144 161 152 145 158 165 171 169 161 159 154 150 148 145 143 143 153 160 137 129 128 125 121
188 191 198 194 194 195 189 189 188 182 196 215 220 201 195 192 181 192 201 208 221 230 230 224 219 219 230 196 170 176 184 177 180 177 156 153 157 159 170 173 163 153 147 147 150 151 151 146 143 143 142 145 148 148 147 144 143 144 149 154 151 145 138 141 162 156 147 153 155 154 149 148 152 152 154 154 147 148 154 162 157 141 137 133 126 123
182 182 189 189 186 184 191 201 188 183 196 210 214 200 199 205 189 187 201 206 215 223 221 217 219 228 226 169 162 176 179 175 178 167 151 149 153 156 167 164 151 148 148 149 151 152 152 148 145 143 144 147 148 149 149 141 135 140 149 151 144 138 135 141 157 157 151 152 149 144 140 143 149 150 153 153 146 144 144 147 150 145 140 133 125 119
177 165 174 189 195 191 207 217 195 188 197 205 206 194 200 212 193 182 206 201 217 235 216 199 197 354 170 146 158 170 168 179 185 156 140 148 157 158 159 153 147 147 148 153 156 153 151 148 146 145 145 146 145 144 142 137 137 144 146 142 138 137 139 143 153 157 152 151 148 145 144 145 146 147 150 148 144 143 142 146 150 145 136 128 121 113
177 170 172 186 202 200 210 218 197 192 197 190 198 199 203 215 205 187 202 180 71 243 210 185 163 94 123 152 152 159 171 186 180 142 132 149 162 163 156 148 147 150 151 157 159 154 150 146 146 149 148 145 142 138 136 138 145 149 143 139 139 138 140 148 160 164 159 155 148 144 145 145 144 146 143 139 138 139 141 143 142 137 130 124 117 111
177 180 173 185 200 195 204 217 201 192 206 191 186 202 207 214 215 201 200 185 188 225 201 193 203 163 156 184 158 168 181 175 151 132 134 148 157 159 157 152 150 152 155 159 159 154 150 148 148 149 147 144 142 141 141 145 148 146 142 142 139 136 142 155 166 170 170 165 151 140 139 138 139 139 135 131 132 135 136 137 137 133 127 122 116 110
187 181 166 187 196 185 199 218 198 189 216 213 183 201 216 213 207 191 199 203 196 215 213 206 211 193 180 185 168 181 177 144 128 137 144 152 155 153 155 158 155 152 156 159 156 152 152 153 151 148 146 144 144 144 143 142 140 140 144 147 144 142 146 150 151 150 150 147 137 131 132 134 135 133 129 130 135 138 138 136 135 132 127 122 117 112
202 196 159 186 190 178 190 212 192 183 214 215 190 198 223 227 209 188 190 209 201 205 215 215 211 199 194 174 167 187 173 137 137 161 160 160 158 151 154 162 157 151 158 162 158 155 156 156 152 149 147 143 143 143 140 140 140 142 147 150 149 147 147 145 142 138 132 129 128 130 134 135 134 132 131 133 138 139 137 135 133 129 125 122 118 114
211 198 157 176 179 177 184 199 198 186 196 208 195 192 210 219 212 202 193 204 216 208 205 222 215 195 205 173 167 184 169 144 150 162 160 158 153 150 155 160 158 156 162 164 159 157 158 155 151 150 147 144 143 142 142 144 143 142 147 152 151 146 143 141 137 134 130 130 133 136 134 133 134 138 139 138 140 139 136 134 132 128 125 121 116 112
205 167 154 171 181 186 189 194 204 198 186 199 206 200 204 203 204 208 196 193 216 216 209 231 222 202 214 161 164 179 163 148 151 146 148 156 152 153 160 160 160 162 165 164 160 158 157 154 151 149 147 146 144 143 145 145 141 143 149 151 145 138 137 136 133 132 132 133 135 134 132 134 137 141 141 140 139 136 133 130 126 125 126 121 115 110
95 159 172 186 190 186 185 192 207 209 190 194 217 217 201 200 209 216 201 191 205 211 220 234 212 232 346 144 164 176 153 143 144 142 151 161 156 156 161 160 160 163 166 165 160 158 157 154 152 150 148 147 147 147 146 142 142 148 147 133 131 134 134 134 133 131 133 134 132 132 134 138 140 141 141 140 137 134 132 129 124 122 122 119 115 110
120 183 180 178 185 183 185 191 205 215 201 196 216 222 211 207 205 213 221 204 206 210 212 224 190 115 329 223 173 158 147 146 150 155 160 161 159 160 158 159 162 164 167 165 160 158 158 156 154 152 150 150 149 148 145 142 145 144 133 130 143 147 137 134 136 135 134 133 131 135 138 140 142 142 141 139 135 132 131 127 124 122 120 117 114 109
162 195 181 174 178 182 188 186 195 208 207 202 208 211 228 226 197 195 224 208 209 223 215 217 186 143 186 202 164 148 158 159 156 158 159 157 159 159 154 156 161 163 164 164 160 160 160 158 156 154 153 153 151 149 146 145 146 141 139 147 153 154 146 141 142 141 137 135 136 140 141 142 144 143 141 138 134 132 130 126 124 122 119 117 114 111
182 198 188 186 181 182 190 181 183 195 195 207 208 196 217 233 201 185 218 217 208 222 222 232 163 121 150 171 163 164 177 171 147 145 150 154 156 153 150 154 159 161 162 162 161 162 161 160 158 155 156 156 152 150 148 146 145 145 152 154 148 151 154 149 148 144 141 142 143 144 144 143 143 141 139 136 132 131 130 126 123 119 115 113 109 107
192 210 211 208 194 185 190 173 173 187 191 206 211 193 203 232 222 196 201 225 225 212 224 241 158 138 154 163 165 177 183 171 147 140 144 148 150 149 149 154 158 160 162 161 161 162 162 161 160 158 158 156 153 151 148 148 148 148 156 154 145 151 159 154 149 146 145 146 145 144 144 143 142 140 138 135 132 132 130 127 126 122 117 112 107 103
199 240 248 236 198 182 193 181 172 187 199 204 209 197 197 221 235 222 186 199 224 223 221 212 154 144 159 172 186 192 165 142 138 141 143 144 146 147 151 155 157 159 163 163 162 163 162 162 162 160 159 156 155 154 151 152 153 149 152 152 149 158 165 156 148 146 147 146 144 144 145 143 142 140 137 136 133 130 129 128 128 127 124 120 115 108
209 240 245 231 199 185 197 186 169 181 201 203 204 204 199 207 222 233 214 197 202 224 243 191 146 144 166 181 185 172 134 132 140 140 139 141 143 147 153 157 159 162 166 167 165 166 165 164 163 161 160 158 157 155 152 153 155 153 153 152 153 163 167 155 146 146 147 147 146 146 146 144 142 140 138 136 134 131 130 129 127 127 123 120 118 112
251 246 209 207 211 196 188 187 182 190 201 203 201 202 207 206 206 220 235 227 207 221 253 227 163 167 177 175 170 142 120 122 128 130 137 145 147 150 156 161 164 166 168 168 167 167 167 165 164 162 161 161 160 157 154 153 155 154 154 155 157 160 158 150 147 148 149 149 149 147 146 143 140 139 138 139 138 138 136 132 129 127 123 120 118 114
259 260 196 191 215 191 171 249 239 203 194 198 197 198 208 211 203 207 224 235 224 223 238 238 223 216 176 153 153 142 126 121 126 134 144 152 155 159 164 167 169 169 168 168 168 168 168 167 166 164 164 164 161 159 158 157 157 156 154 156 158 155 152 150 149 150 150 150 149 146 144 141 139 140 141 140 139 138 135 132 128 125 121 118 116 112
200 253 199 177 200 188 182 288 271 195 185 198 200 198 203 208 210 208 212 217 213 218 232 232 228 237 180 148 152 151 143 143 149 149 151 156 161 166 170 172 172 170 168 169 169 170 171 170 169 168 166 166 164 161 160 159 158 158 157 157 158 154 151 150 149 150 150 147 145 143 143 142 142 142 140 137 139 139 136 132 127 123 120 117 112 108
204 228 200 177 186 176 184 252 264 167 181 206 207 204 204 204 205 207 217 220 209 210 230 230 209 212 228 166 152 154 155 158 163 164 164 163 162 165 172 174 174 172 170 170 171 173 175 174 173 171 167 167 166 163 162 161 160 160 159 158 158 155 151 149 149 149 148 145 144 144 144 144 143 142 140 141 143 139 133 129 125 121 116 111 107 102
221 220 203 185 189 175 171 195 226 195 193 211 314 277 239 218 205 202 209 210 207 215 227 228 223 224 227 178 149 154 165 171 172 172 171 168 164 166 174 178 179 177 176 174 173 175 176 176 174 172 169 168 166 164 164 162 161 162 160 159 158 155 151 150 149 148 148 147 148 146 144 145 147 148 149 146 141 135 131 127 123 118 113 108 104 98
218 221 205 182 204 197 165 168 203 213 193 43 2 314 283 266 238 222 219 210 203 207 216 224 230 231 232 186 151 156 172 171 160 162 170 175 175 174 176 180 182 181 179 177 177 177 178 176 174 172 170 168 166 165 164 163 163 161 159 159 159 155 152 150 149 151 152 151 149 148 149 154 156 152 145 140 137 134 132 127 120 117 112 107 102 95
208 220 216 178 202 210 179 180 200 184 119 73 19 319 308 306 287 268 251 230 212 204 202 210 224 234 239 205 162 161 166 158 153 166 178 182 182 180 180 185 187 184 182 181 179 179 178 176 173 171 169 168 168 167 164 164 165 161 159 160 158 154 154 153 153 154 154 153 152 154 157 158 152 145 142 142 144 143 137 131 124 119 113 106 100 94
205 213 220 205 203 205 197 189 171 116 120 137 176 220 223 244 245 249 269 254 241 232 210 200 213 223 224 221 205 180 163 153 155 177 184 184 185 184 185 190 190 185 181 181 180 178 177 175 173 171 169 168 169 167 164 165 165 162 160 159 156 155 157 157 156 156 157 156 156 155 155 152 147 147 148 147 148 145 137 130 124 118 112 104 97 90
204 213 213 218 209 209 217 203 177 169 198 199 193 188 193 220 219 212 243 249 242 248 242 224 216 209 210 230 220 173 154 156 166 181 183 183 181 181 185 190 188 181 177 177 178 177 176 175 173 171 170 170 169 167 167 167 165 162 161 159 157 158 160 159 159 159 159 157 155 153 153 153 151 151 150 150 151 147 138 132 128 122 115 109 103 95
187 214 226 228 217 215 229 228 205 208 234 202 176 170 174 191 180 183 234 239 224 227 232 234 224 209 219 225 168 129 144 179 189 180 181 179 175 176 181 182 179 176 175 177 178 176 174 174 173 171 170 169 167 168 169 166 164 162 161 159 159 160 161 162 162 160 158 156 155 156 156 156 153 151 153 156 155 149 140 135 128 116 103 98 101 105
173 199 228 228 224 216 218 234 231 216 71 102 130 143 155 165 169 194 211 218 258 237 222 221 219 221 228 212 153 135 173 198 195 182 176 173 171 173 176 176 174 172 174 176 176 174 174 174 173 173 173 169 167 168 167 163 163 163 162 161 163 163 163 164 161 158 157 157 158 158 158 156 155 155 159 161 155 147 142 136 127 116 108 107 114 127
177 186 213 220 221 210 206 226 232 173 112 115 128 135 138 145 170 199 200 246 352 350 269 229 218 220 228 203 157 159 176 104 58 179 169 165 166 167 171 174 171 171 176 177 174 173 175 175 174 175 176 173 169 166 164 163 164 165 165 164 165 165 163 161 158 157 159 159 159 159 158 158 158 160 163 162 154 147 144 139 133 131 136 146 154 153
187 186 201 221 228 216 205 222 232 222 118 125 134 138 145 158 181 191 236 318 344 0 345 300 234 226 228 192 154 150 119 90 126 160 160 159 161 162 167 170 168 170 176 176 174 174 176 176 174 174 175 173 169 166 165 166 167 166 167 166 166 165 162 158 158 160 160 159 159 160 161 161 162 163 164 161 153 147 145 138 131 131 139 144 141 132
183 189 202 209 213 216 212 211 221 248 190 159 155 149 158 181 305 345 322 343 22 8 341 317 278 262 244 170 128 111 104 119 141 151 154 157 158 159 163 166 166 168 171 173 175 177 177 176 173 172 173 172 169 167 167 168 167 166 167 167 166 164 160 159 160 160 159 160 161 163 164 163 164 164 164 161 155 150 148 142 137 142 143 128 112 101
175 185 207 208 207 220 223 202 193 350 70 124 136 128 110 103 64 340 328 39 61 29 352 320 322 329 2 119 106 100 120 138 146 150 152 156 156 158 163 166 167 169 172 175 177 177 179 178 173 171 172 170 168 168 168 169 167 166 166 167 165 162 160 160 160 160 161 162 163 165 165 165 165 165 165 162 155 149 148 143 140 147 146 129 119 115
201 78 147 214 266 230 156 93 85 84 70 71 80 88 88 82 67 1 1 39 61 48 21 332 342 49 102 118 112 114 131 142 150 154 155 157 158 161 167 169 169 171 174 175 176 177 180 178 172 169 170 169 168 168 169 170 168 166 167 167 164 162 161 161 161 162 163 164 165 166 166 166 166 167 165 159 151 149 150 144 138 144 147 144 151 156
274 303 133 214 293 92 132 126 119 113 97 78 73 83 85 70 47 26 34 46 53 55 49 30 186 136 134 130 123 129 142 149 157 159 158 161 163 164 167 166 167 171 174 173 174 176 176 173 171 169 168 167 168 169 169 171 170 168 168 166 164 163 163 162 163 164 164 165 166 166 166 166 166 166 163 156 151 154 154 146 145 154 156 151 157 165
210 267 267 230 202 96 143 141 130 127 130 148 158 82 39 60 64 49 55 69 65 57 59 82 145 158 159 151 142 146 157 162 164 163 162 164 166 165 165 165 167 171 173 173 173 170 169 171 171 169 167 167 168 169 170 171 171 169 167 166 165 164 163 164 165 165 165 166 166 165 166 166 166 165 161 154 152 157 156 150 155 166 169 168 175 180
167 331 301 232 210 209 151 97 88 131 146 170 191 182 233 226 121 85 75 83 84 81 80 94 136 153 163 166 158 157 166 171 170 171 170 167 165 164 164 166 168 168 169 172 173 169 170 174 172 168 168 167 167 170 171 170 169 168 167 166 164 163 164 166 166 166 166 166 165 164 164 166 167 166 160 152 153 164 168 167 170 176 180 183 184 182
125 314 300 244 240 233 136 68 17 168 129 38 352 121 152 214 122 109 104 99 97 93 90 100 128 145 162 172 163 161 171 174 172 173 167 157 159 164 164 164 167 169 169 175 176 172 173 176 174 171 170 168 168 171 170 168 168 167 165 165 164 164 167 167 166 166 166 165 164 163 164 166 167 165 160 155 161 175 178 176 182 192 198 196 193 187
154 241 328 327 292 291 99 60 313 188 109 20 2 35 54 6 8 71 165 137 125 116 112 117 122 128 156 175 170 166 172 176 176 174 164 153 157 166 168 166 169 172 174 178 181 178 177 178 177 174 171 169 170 171 168 167 168 166 165 166 165 167 170 168 166 166 165 164 164 164 166 169 167 163 162 163 173 185 186 183 191 203 207 207 206 203
354 330 7 22 49 58 71 86 67 89 124 161 27 43 46 17 348 302 253 182 128 131 134 138 141 145 154 168 177 174 170 177 179 172 165 165 168 169 170 170 172 174 175 179 182 181 181 181 178 176 173 170 170 169 167 167 167 166 166 167 167 170 172 169 166 166 165 165 167 167 169 170 165 163 168 170 177 194 196 191 197 205 205 207 209 208
Height
1455 1455 1452 1447 1444 1444 1445 1444 1444 1443 1440 1440 1442 1446 1447 1445 1441 1436 1430 1427 1433 1446 1450 1447 1451 1463 1471 1474 1476 1480 1482 1485 1488 1491 1493 1495 1498 1501 1502 1506 1512 1517 1519 1519 1518 1516 1514 1515 1517 1518 1519 1519 1521 1522 1523 1526 1530 1532 1533 1535 1536 1537 1539 1541 1544 1547 1549 1551 1551 1551 1554 1558 1562 1561 1557 1554 1553 1553 1553 1553 1552 1552 1552 1551 1551 1551
1453 1450 1442 1438 1440 1443 1444 1443 1443 1443 1439 1436 1437 1440 1443 1442 1437 1430 1425 1424 1431 1443 1446 1446 1455 1465 1469 1473 1476 1480 1484 1486 1488 1491 1493 1494 1498 1501 1502 1503 1509 1513 1516 1517 1516 1515 1514 1515 1517 1518 1519 1520 1521 1521 1523 1526 1529 1531 1533 1535 1536 1537 1539 1542 1545 1547 1549 1550 1550 1552 1555 1558 1562 1561 1558 1555 1554 1554 1553 1552 1552 1551 1551 1551 1550 1550
1448 1440 1433 1436 1441 1442 1442 1441 1442 1443 1439 1436 1434 1435 1439 1438 1433 1428 1421 1422 1430 1440 1444 1448 1459 1467 1468 1473 1479 1481 1484 1486 1488 1491 1493 1494 1497 1500 1500 1501 1507 1511 1514 1514 1514 1514 1514 1516 1517 1517 1519 1520 1520 1521 1523 1526 1528 1530 1532 1534 1535 1537 1540 1542 1544 1546 1548 1549 1550 1552 1554 1557 1560 1560 1558 1556 1554 1553 1553 1552 1551 1551 1551 1551 1550 1550
1441 1433 1432 1438 1440 1439 1440 1439 1441 1442 1439 1437 1432 1430 1433 1432 1432 1430 1421 1420 1428 1436 1442 1449 1458 1466 1472 1479 1483 1484 1485 1485 1489 1492 1493 1495 1497 1499 1498 1499 1506 1511 1513 1513 1513 1513 1514 1516 1516 1517 1518 1519 1519 1520 1522 1525 1527 1529 1531 1532 1534 1537 1539 1542 1544 1546 1548 1548 1549 1551 1553 1556 1560 1560 1558 1556 1555 1553 1552 1552 1552 1551 1551 1550 1550 1550
1433 1431 1433 1436 1436 1437 1437 1437 1439 1440 1439 1437 1431 1427 1427 1426 1427 1425 1418 1420 1429 1436 1442 1452 1468 1474 1476 1483 1485 1484 1485 1486 1489 1492 1493 1495 1498 1500 1500 1500 1505 1511 1512 1511 1511 1512 1513 1514 1515 1516 1518 1519 1519 1520 1522 1524 1527 1528 1529 1531 1533 1536 1539 1542 1545 1547 1547 1547 1548 1550 1553 1557 1560 1559 1558 1556 1554 1553 1552 1552 1551 1550 1549 1549 1550 1550
1430 1430 1431 1432 1433 1434 1434 1433 1433 1436 1438 1437 1430 1422 1420 1422 1422 1421 1422 1428 1438 1445 1441 1450 1478 1487 1478 1479 1482 1481 1483 1486 1488 1490 1491 1495 1497 1499 1501 1501 1505 1511 1513 1510 1509 1510 1512 1513 1514 1516 1519 1520 1519 1519 1521 1524 1526 1527 1528 1530 1534 1537 1540 1542 1544 1545 1546 1547 1549 1551 1553 1558 1560 1559 1557 1556 1554 1553 1553 1552 1550 1550 1549 1550 1550 1550
1426 1425 1426 1428 1429 1430 1431 1430 1428 1432 1437 1435 1427 1419 1417 1418 1419 1418 1423 1433 1443 1447 1438 1439 1468 1487 1483 1479 1479 1480 1483 1485 1487 1489 1490 1494 1497 1498 1500 1501 1505 1510 1511 1510 1509 1510 1511 1512 1514 1516 1518 1519 1519 1519 1521 1523 1525 1526 1528 1531 1534 1537 1540 1542 1543 1544 1546 1547 1549 1551 1553 1557 1559 1558 1556 1555 1554 1553 1552 1552 1551 1550 1550 1550 1550 1549
1420 1420 1422 1424 1425 1427 1429 1428 1425 1426 1432 1430 1421 1420 1421 1419 1417 1417 1424 1436 1440 1440 1436 1434 1449 1475 1486 1479 1475 1479 1483 1484 1486 1489 1490 1492 1495 1498 1501 1503 1505 1508 1509 1509 1508 1509 1511 1512 1513 1516 1517 1518 1518 1520 1522 1523 1525 1527 1529 1532 1534 1536 1539 1540 1541 1543 1544 1546 1548 1550 1552 1556 1557 1556 1556 1554 1554 1553 1552 1552 1551 1550 1550 1549 1549 1549
1415 1416 1418 1420 1422 1424 1426 1423 1419 1421 1426 1423 1418 1420 1420 1417 1415 1415 1425 1437 1438 1441 1446 1440 1442 1466 1482 1474 1471 1478 1482 1484 1483 1484 1487 1490 1493 1496 1499 1503 1506 1509 1509 1508 1508 1509 1510 1512 1514 1515 1517 1518 1519 1520 1522 1523 1525 1527 1529 1532 1534 1536 1538 1539 1541 1542 1544 1547 1548 1550 1553 1555 1555 1555 1555 1554 1553 1553 1553 1553 1551 1550 1550 1549 1549 1550
1412 1412 1414 1417 1420 1419 1420 1418 1415 1419 1422 1418 1416 1418 1417 1417 1417 1418 1426 1432 1437 1449 1452 1441 1441 1462 1475 1470 1472 1479 1480 1479 1478 1479 1483 1488 1492 1495 1497 1500 1505 1510 1511 1508 1508 1509 1510 1512 1514 1515 1516 1518 1520 1522 1523 1524 1525 1528 1530 1532 1534 1535 1538 1539 1541 1543 1545 1548 1550 1552 1553 1554 1555 1554 1554 1554 1554 1553 1553 1552 1551 1550 1549 1549 1550 1550
1409 1410 1410 1412 1416 1414 1414 1416 1412 1415 1419 1415 1413 1416 1420 1422 1420 1421 1422 1426 1446 1459 1449 1436 1437 1453 1468 1466 1465 1471 1470 1468 1472 1476 1481 1486 1490 1495 1497 1499 1505 1512 1511 1508 1508 1509 1511 1513 1514 1515 1517 1519 1521 1522 1524 1525 1526 1528 1531 1532 1533 1534 1537 1539 1541 1543 1545 1548 1550 1551 1553 1553 1554 1554 1554 1554 1554 1554 1553 1551 1550 1550 1550 1550 1551 1551
1404 1409 1407 1406 1411 1410 1411 1414 1410 1411 1416 1415 1415 1419 1428 1431 1430 1434 1432 1436 1460 1466 1445 1433 1434 1445 1462 1462 1456 1459 1459 1461 1467 1470 1476 1482 1486 1491 1496 1499 1506 1512 1510 1508 1508 1509 1510 1512 1514 1515 1517 1520 1522 1524 1525 1526 1527 1529 1531 1532 1533 1535 1537 1539 1542 1544 1546 1548 1549 1551 1552 1553 1553 1554 1554 1554 1554 1554 1553 1552 1551 1550 1551 1551 1552 1552
1403 1406 1405 1405 1408 1406 1409 1413 1413 1414 1417 1419 1418 1421 1435 1443 1450 1460 1459 1458 1466 1457 1438 1431 1434 1443 1451 1447 1446 1452 1454 1457 1461 1464 1469 1477 1483 1489 1494 1498 1505 1508 1507 1506 1507 1508 1510 1512 1514 1515 1517 1521 1523 1524 1526 1527 1528 1530 1531 1533 1534 1536 1538 1541 1543 1545 1547 1548 1549 1550 1551 1552 1553 1553 1553 1553 1553 1553 1552 1552 1551 1551 1551 1552 1552 1552
1407 1406 1402 1403 1403 1400 1405 1412 1416 1418 1417 1419 1417 1420 1434 1447 1462 1475 1469 1465 1464 1452 1436 1427 1432 1443 1442 1437 1439 1445 1448 1451 1456 1462 1467 1474 1481 1488 1493 1497 1502 1503 1503 1506 1506 1508 1510 1511 1514 1515 1517 1520 1522 1524 1526 1527 1529 1530 1531 1533 1534 1537 1540 1543 1544 1545 1547 1548 1548 1549 1549 1550 1551 1551 1551 1551 1551 1551 1551 1552 1551 1551 1552 1552 1552 1552
1408 1408 1400 1399 1399 1397 1402 1406 1409 1412 1415 1416 1411 1414 1428 1434 1452 1468 1463 1461 1461 1450 1437 1431 1437 1444 1443 1443 1440 1440 1445 1448 1453 1459 1465 1473 1480 1486 1491 1495 1498 1500 1501 1505 1506 1508 1510 1511 1514 1515 1517 1520 1522 1524 1526 1527 1530 1530 1531 1533 1535 1538 1541 1543 1544 1545 1546 1547 1547 1548 1548 1549 1549 1549 1549 1549 1550 1550 1551 1551 1551 1551 1551 1551 1551 1551
1407 1410 1403 1404 1404 1403 1407 1404 1401 1409 1416 1414 1406 1414 1427 1423 1429 1447 1447 1445 1450 1449 1440 1437 1442 1441 1439 1442 1439 1440 1448 1448 1451 1457 1463 1473 1479 1483 1489 1492 1496 1499 1501 1504 1506 1508 1510 1511 1514 1515 1517 1520 1522 1524 1526 1528 1530 1531 1532 1535 1537 1539 1541 1542 1544 1544 1545 1545 1545 1546 1546 1547 1547 1547 1548 1548 1549 1550 1551 1551 1551 1551 1551 1551 1551 1551
1408 1411 1404 1408 1410 1406 1409 1405 1400 1407 1413 1412 1411 1417 1420 1414 1417 1435 1442 1437 1443 1455 1446 1437 1445 1446 1444 1446 1440 1441 1449 1447 1450 1457 1464 1472 1477 1482 1487 1490 1494 1498 1500 1504 1505 1507 1509 1511 1513 1516 1518 1520 1522 1525 1526 1528 1530 1531 1533 1535 1537 1539 1540 1542 1542 1543 1543 1544 1544 1544 1545 1546 1546 1547 1547 1548 1549 1550 1550 1550 1550 1551 1551 1551 1551 1551
1405 1410 1403 1405 1410 1404 1405 1403 1399 1401 1404 1409 1417 1418 1414 1414 1415 1425 1441 1447 1452 1461 1449 1437 1445 1449 1451 1455 1446 1441 1447 1448 1450 1458 1465 1472 1476 1481 1486 1489 1494 1497 1500 1504 1505 1507 1509 1511 1513 1516 1518 1521 1523 1525 1527 1528 1530 1532 1534 1536 1537 1539 1540 1541 1541 1541 1542 1542 1543 1544 1545 1546 1547 1547 1548 1548 1549 1549 1549 1550 1550 1551 1551 1551 1551 1551
1399 1409 1407 1403 1405 1404 1402 1402 1402 1402 1402 1405 1413 1413 1414 1424 1426 1426 1440 1451 1456 1461 1452 1439 1438 1440 1443 1448 1444 1441 1444 1449 1453 1458 1464 1470 1475 1480 1485 1489 1493 1496 1500 1503 1504 1506 1508 1510 1513 1515 1518 1520 1522 1524 1526 1528 1530 1532 1534 1535 1537 1538 1539 1540 1540 1541 1541 1542 1543 1544 1545 1547 1547 1548 1548 1548 1548 1549 1549 1550 1550 1550 1550 1550 1551 1550
1394 1407 1413 1404 1399 1402 1402 1403 1407 1410 1406 1403 1407 1412 1413 1418 1422 1425 1432 1439 1447 1457 1456 1447 1439 1435 1432 1432 1436 1438 1440 1448 1456 1458 1460 1466 1472 1478 1484 1489 1492 1495 1499 1502 1503 1506 1508 1510 1513 1514 1517 1519 1521 1523 1526 1528 1531 1532 1534 1535 1536 1537 1538 1539 1540 1540 1541 1542 1543 1545 1546 1546 1547 1547 1548 1547 1548 1548 1549 1550 1550 1550 1550 1550 1550 1550
1394 1401 1410 1405 1400 1405 1408 1406 1406 1408 1407 1404 1407 1415 1417 1414 1412 1418 1423 1425 1433 1447 1454 1452 1447 1435 1423 1422 1429 1433 1435 1444 1452 1456 1461 1465 1471 1477 1482 1487 1491 1495 1499 1502 1503 1505 1507 1510 1512 1514 1517 1518 1520 1523 1525 1527 1530 1531 1533 1533 1535 1536 1536 1537 1538 1539 1541 1542 1543 1544 1545 1546 1546 1546 1547 1547 1548 1548 1549 1549 1550 1550 1550 1550 1551 1551
1397 1399 1407 1411 1409 1409 1409 1404 1401 1402 1404 1407 1409 1412 1414 1413 1415 1425 1432 1426 1425 1434 1441 1445 1447 1435 1419 1417 1424 1427 1431 1439 1445 1453 1461 1465 1470 1475 1480 1485 1489 1493 1498 1500 1502 1505 1507 1509 1511 1513 1515 1517 1519 1522 1524 1526 1528 1530 1532 1532 1533 1534 1535 1536 1537 1538 1540 1541 1542 1543 1543 1544 1545 1546 1546 1547 1548 1548 1549 1549 1550 1550 1550 1550 1551 1551
1397 1400 1408 1412 1407 1404 1405 1403 1402 1402 1402 1407 1410 1406 1406 1410 1414 1425 1434 1429 1424 1427 1428 1431 1441 1439 1424 1417 1422 1424 1429 1436 1443 1450 1458 1464 1469 1473 1477 1483 1488 1492 1497 1500 1501 1504 1506 1508 1510 1512 1514 1516 1518 1520 1522 1525 1527 1529 1530 1531 1532 1532 1533 1535 1536 1537 1539 1539 1541 1542 1542 1544 1545 1546 1547 1547 1548 1549 1549 1549 1550 1550 1550 1550 1551 1551
1398 1402 1408 1411 1404 1400 1403 1403 1403 1402 1402 1407 1408 1403 1404 1407 1408 1413 1418 1420 1425 1430 1430 1435 1446 1447 1433 1422 1421 1423 1428 1436 1442 1447 1453 1460 1466 1471 1475 1480 1485 1491 1495 1498 1501 1503 1505 1507 1509 1511 1513 1515 1517 1519 1521 1523 1525 1527 1529 1530 1531 1531 1532 1534 1535 1537 1537 1538 1540 1541 1542 1544 1545 1546 1547 1547 1548 1548 1549 1549 1549 1550 1550 1551 1551 1551
1401 1404 1408 1415 1417 1415 1413 1411 1409 1406 1404 1407 1406 1405 1405 1402 1402 1410 1414 1418 1429 1430 1427 1436 1447 1444 1432 1425 1423 1424 1428 1434 1439 1445 1451 1457 1464 1469 1474 1478 1483 1489 1493 1496 1499 1501 1504 1506 1507 1510 1512 1514 1516 1517 1520 1522 1523 1526 1529 1530 1530 1531 1532 1534 1535 1536 1536 1538 1540 1541 1542 1544 1545 1546 1547 1547 1548 1548 1549 1549 1549 1550 1550 1551 1551 1551
1400 1402 1404 1412 1421 1423 1420 1415 1411 1407 1406 1407 1405 1405 1408 1403 1403 1413 1419 1425 1433 1428 1421 1429 1440 1439 1430 1425 1425 1427 1429 1432 1438 1446 1453 1458 1464 1469 1473 1477 1482 1487 1491 1495 1497 1500 1502 1505 1506 1508 1511 1513 1514 1516 1518 1521 1522 1525 1528 1529 1530 1530 1532 1533 1534 1535 1536 1538 1540 1541 1542 1544 1545 1546 1546 1547 1548 1548 1549 1549 1550 1550 1551 1551 1551 1551
1398 1400 1399 1401 1406 1409 1407 1403 1401 1403 1408 1410 1406 1404 1408 1407 1405 1410 1420 1427 1428 1427 1427 1426 1431 1439 1436 1430 1429 1428 1428 1432 1437 1445 1453 1458 1464 1468 1472 1477 1480 1485 1491 1494 1496 1499 1501 1503 1505 1507 1510 1512 1513 1515 1517 1519 1522 1524 1526 1528 1530 1530 1531 1533 1533 1534 1536 1538 1540 1541 1542 1543 1544 1545 1546 1547 1548 1548 1549 1550 1550 1550 1550 1551 1551 1552
1402 1405 1401 1396 1395 1395 1395 1394 1396 1402 1406 1407 1406 1406 1408 1410 1407 1409 1419 1424 1423 1430 1436 1426 1426 1439 1438 1433 1432 1429 1428 1432 1437 1443 1451 1458 1463 1469 1474 1477 1480 1484 1490 1492 1495 1497 1499 1502 1504 1506 1508 1510 1512 1514 1516 1519 1521 1523 1525 1527 1529 1530 1531 1532 1533 1534 1536 1537 1539 1541 1542 1543 1544 1545 1546 1547 1548 1549 1549 1550 1550 1550 1550 1551 1551 1552
1405 1409 1401 1395 1393 1390 1389 1390 1393 1399 1403 1404 1405 1406 1408 1410 1411 1413 1417 1417 1419 1430 1433 1423 1426 1437 1435 1431 1431 1429 1429 1435 1440 1446 1452 1458 1464 1469 1473 1477 1480 1484 1488 1490 1493 1495 1497 1500 1502 1504 1507 1509 1511 1513 1515 1517 1520 1522 1524 1526 1528 1529 1530 1532 1533 1534 1536 1537 1539 1540 1541 1543 1544 1545 1546 1547 1548 1549 1549 1550 1550 1550 1551 1551 1551 1552
1406 1407 1399 1396 1397 1393 1391 1392 1393 1398 1402 1401 1403 1405 1407 1409 1411 1414 1415 1413 1415 1423 1423 1420 1426 1430 1427 1427 1429 1429 1433 1438 1443 1449 1453 1458 1464 1468 1473 1477 1479 1483 1486 1488 1491 1493 1496 1498 1500 1503 1505 1507 1510 1512 1513 1516 1518 1520 1523 1525 1527 1528 1530 1531 1532 1534 1535 1537 1539 1540 1542 1543 1544 1545 1546 1547 1548 1549 1550 1550 1550 1551 1551 1552 1552 1552
1410 1408 1397 1398 1404 1402 1399 1397 1395 1396 1400 1403 1405 1407 1408 1410 1411 1414 1416 1415 1417 1421 1421 1421 1426 1425 1421 1421 1426 1431 1436 1441 1445 1450 1453 1457 1461 1466 1471 1475 1478 1481 1483 1486 1489 1492 1495 1497 1498 1501 1503 1506 1508 1510 1512 1515 1517 1519 1522 1524 1526 1528 1529 1530 1531 1533 1535 1537 1539 1540 1542 1543 1544 1546 1547 1548 1549 1549 1550 1551 1551 1551 1552 1552 1553 1553
1411 1411 1400 1403 1415 1414 1407 1405 1400 1394 1398 1405 1407 1406 1408 1411 1413 1414 1415 1416 1419 1423 1424 1425 1428 1426 1420 1419 1424 1430 1435 1440 1445 1450 1453 1457 1460 1464 1468 1472 1475 1478 1481 1484 1487 1489 1492 1495 1497 1499 1502 1504 1507 1508 1511 1513 1516 1518 1520 1522 1525 1527 1528 1529 1531 1533 1535 1537 1539 1541 1542 1543 1544 1546 1547 1548 1549 1550 1550 1551 1552 1552 1552 1553 1553 1553
1409 1411 1405 1409 1421 1421 1414 1411 1404 1402 1412 1415 1408 1404 1406 1409 1412 1414 1415 1415 1416 1421 1426 1428 1426 1423 1420 1420 1424 1429 1433 1438 1443 1446 1450 1454 1459 1464 1468 1471 1475 1477 1479 1482 1484 1487 1490 1492 1495 1497 1500 1503 1505 1507 1510 1512 1514 1516 1518 1521 1524 1525 1527 1529 1531 1533 1536 1538 1540 1541 1542 1544 1544 1546 1547 1548 1549 1550 1551 1552 1552 1553 1553 1553 1554 1554
1408 1409 1407 1408 1418 1421 1417 1412 1412 1420 1431 1425 1410 1404 1406 1407 1410 1414 1416 1416 1417 1419 1422 1424 1422 1421 1421 1422 1426 1430 1433 1437 1440 1444 1448 1452 1457 1462 1466 1470 1473 1475 1478 1480 1482 1485 1489 1491 1494 1497 1499 1502 1504 1506 1509 1511 1513 1515 1518 1521 1523 1524 1526 1528 1530 1534 1536 1538 1540 1541 1542 1544 1544 1545 1547 1549 1550 1551 1552 1553 1553 1553 1553 1553 1554 1554
1410 1409 1408 1407 1413 1416 1413 1417 1430 1437 1432 1420 1411 1408 1408 1406 1407 1410 1412 1412 1415 1418 1420 1422 1422 1422 1421 1421 1425 1430 1434 1437 1441 1445 1448 1452 1455 1458 1462 1466 1470 1472 1475 1478 1480 1484 1487 1489 1492 1495 1498 1501 1503 1505 1508 1510 1512 1515 1517 1520 1521 1523 1526 1528 1530 1533 1536 1537 1539 1540 1542 1543 1544 1546 1548 1549 1551 1551 1552 1553 1553 1553 1553 1554 1554 1554
1409 1409 1409 1409 1412 1412 1412 1422 1436 1435 1423 1418 1418 1415 1412 1412 1411 1415 1417 1413 1411 1414 1418 1421 1423 1421 1419 1420 1424 1429 1433 1436 1440 1443 1446 1449 1452 1455 1459 1463 1465 1468 1471 1474 1477 1481 1484 1488 1491 1494 1497 1500 1502 1504 1507 1509 1511 1513 1516 1519 1521 1522 1525 1528 1530 1532 1535 1537 1538 1540 1541 1543 1544 1546 1548 1550 1551 1551 1552 1553 1553 1553 1554 1554 1554 1555
1407 1408 1410 1412 1412 1411 1415 1421 1425 1428 1427 1425 1422 1417 1416 1416 1415 1419 1425 1419 1411 1411 1414 1417 1420 1420 1419 1420 1422 1425 1430 1435 1440 1443 1444 1447 1450 1454 1458 1461 1464 1467 1470 1474 1478 1480 1483 1487 1490 1493 1496 1498 1501 1503 1505 1508 1510 1512 1515 1517 1520 1522 1525 1527 1529 1531 1534 1536 1537 1539 1541 1543 1545 1546 1548 1550 1550 1551 1552 1552 1553 1554 1554 1554 1555 1556
1406 1407 1409 1415 1413 1409 1413 1418 1423 1433 1435 1426 1418 1414 1414 1415 1414 1417 1425 1423 1415 1412 1413 1413 1415 1417 1418 1420 1419 1421 1427 1434 1439 1441 1442 1445 1449 1453 1458 1462 1464 1466 1469 1474 1477 1480 1483 1486 1489 1492 1494 1496 1499 1502 1504 1507 1509 1511 1514 1516 1519 1522 1524 1526 1528 1530 1532 1535 1537 1539 1541 1543 1544 1546 1548 1549 1550 1550 1551 1552 1553 1554 1555 1555 1556 1556
1407 1406 1406 1413 1415 1411 1415 1420 1422 1427 1424 1412 1408 1411 1413 1416 1415 1418 1429 1430 1417 1412 1414 1413 1413 1416 1417 1419 1420 1421 1427 1435 1437 1437 1439 1444 1448 1452 1457 1460 1462 1465 1469 1473 1476 1479 1483 1485 1488 1491 1493 1495 1498 1500 1503 1506 1508 1510 1513 1515 1518 1521 1523 1525 1527 1529 1532 1534 1537 1539 1541 1542 1544 1546 1547 1548 1549 1550 1551 1552 1553 1554 1555 1556 1557 1557
1408 1410 1410 1414 1416 1413 1417 1421 1419 1419 1417 1408 1406 1411 1415 1416 1417 1426 1441 1435 1416 1411 1414 1412 1413 1416 1416 1418 1421 1423 1428 1433 1433 1433 1436 1442 1447 1451 1455 1457 1459 1464 1468 1472 1475 1479 1482 1484 1486 1488 1491 1494 1496 1499 1502 1505 1508 1510 1512 1515 1517 1520 1522 1524 1526 1528 1531 1534 1536 1539 1540 1542 1544 1545 1547 1548 1548 1550 1551 1552 1553 1554 1555 1557 1558 1558
1408 1411 1413 1415 1416 1414 1418 1422 1418 1416 1415 1409 1408 1413 1416 1418 1425 1435 1439 1427 1413 1413 1414 1411 1413 1416 1415 1417 1420 1422 1426 1429 1429 1431 1435 1440 1445 1449 1452 1455 1458 1463 1467 1471 1475 1478 1480 1482 1485 1487 1489 1492 1495 1498 1501 1504 1506 1509 1511 1514 1517 1519 1521 1523 1525 1528 1531 1533 1536 1538 1540 1541 1543 1545 1546 1547 1548 1549 1551 1552 1553 1554 1556 1557 1558 1558
1411 1413 1414 1415 1416 1414 1416 1420 1420 1417 1413 1409 1410 1414 1417 1423 1431 1432 1425 1418 1415 1415 1413 1412 1413 1414 1415 1417 1419 1422 1426 1428 1430 1432 1435 1439 1443 1447 1450 1454 1457 1461 1465 1469 1473 1476 1478 1481 1485 1487 1489 1492 1495 1498 1500 1502 1505 1508 1511 1514 1516 1518 1521 1522 1524 1527 1530 1533 1535 1537 1539 1541 1542 1544 1545 1547 1548 1549 1550 1552 1553 1554 1556 1557 1557 1558
1411 1416 1417 1415 1414 1414 1416 1420 1424 1423 1416 1410 1412 1416 1418 1423 1427 1423 1418 1418 1418 1416 1415 1415 1415 1415 1415 1417 1420 1423 1426 1429 1432 1434 1437 1441 1443 1445 1449 1452 1455 1459 1463 1466 1470 1473 1476 1480 1484 1486 1489 1492 1495 1498 1500 1502 1505 1508 1511 1513 1516 1518 1520 1521 1523 1526 1530 1532 1534 1536 1538 1540 1541 1543 1545 1546 1547 1549 1550 1551 1553 1554 1556 1557 1557 1558
1409 1413 1416 1412 1409 1412 1417 1420 1422 1421 1415 1411 1414 1418 1419 1421 1422 1421 1420 1419 1419 1419 1420 1419 1418 1418 1418 1418 1421 1426 1428 1431 1434 1435 1438 1441 1443 1446 1449 1451 1454 1458 1460 1463 1468 1471 1475 1479 1482 1486 1489 1492 1495 1497 1499 1502 1504 1507 1511 1513 1515 1517 1518 1520 1523 1526 1529 1531 1533 1535 1537 1539 1540 1542 1544 1545 1547 1548 1550 1551 1553 1554 1556 1557 1558 1559
1410 1410 1414 1414 1410 1410 1415 1417 1417 1416 1415 1415 1417 1418 1419 1421 1422 1422 1421 1420 1420 1422 1422 1422 1422 1423 1422 1422 1425 1428 1430 1433 1435 1437 1439 1442 1444 1446 1448 1451 1454 1456 1458 1462 1467 1471 1474 1478 1482 1485 1489 1492 1495 1497 1499 1501 1504 1506 1509 1512 1513 1515 1516 1519 1523 1525 1528 1530 1532 1534 1536 1538 1540 1542 1543 1545 1547 1548 1550 1551 1553 1555 1556 1557 1558 1560
1409 1409 1413 1414 1411 1410 1413 1414 1413 1415 1417 1418 1419 1420 1421 1422 1422 1422 1422 1422 1422 1423 1423 1424 1424 1425 1425 1426 1426 1429 1432 1434 1436 1438 1440 1442 1444 1446 1448 1450 1453 1456 1458 1462 1466 1470 1475 1479 1482 1485 1487 1490 1493 1496 1498 1501 1503 1505 1508 1510 1512 1513 1515 1518 1522 1524 1527 1529 1531 1532 1535 1537 1539 1541 1543 1545 1547 1548 1550 1551 1553 1555 1556 1557 1558 1559
1409 1411 1413 1412 1411 1414 1416 1413 1412 1415 1418 1419 1420 1421 1422 1422 1423 1423 1423 1423 1423 1424 1424 1424 1425 1425 1427 1427 1428 1431 1433 1434 1436 1439 1441 1443 1446 1447 1448 1449 1452 1455 1459 1463 1466 1470 1474 1478 1481 1484 1486 1488 1491 1494 1497 1500 1503 1505 1507 1508 1510 1512 1515 1518 1521 1523 1526 1528 1529 1532 1534 1536 1537 1540 1542 1544 1547 1549 1550 1551 1553 1555 1556 1557 1558 1558
1413 1415 1414 1411 1411 1414 1415 1415 1415 1417 1419 1419 1420 1422 1422 1423 1424 1424 1424 1424 1424 1424 1425 1425 1425 1426 1427 1428 1430 1432 1433 1434 1436 1439 1440 1442 1445 1448 1449 1450 1452 1456 1460 1464 1467 1470 1473 1476 1480 1482 1484 1487 1490 1492 1495 1498 1501 1503 1505 1507 1509 1511 1514 1517 1520 1522 1525 1527 1528 1531 1533 1535 1537 1539 1541 1544 1547 1549 1550 1551 1553 1554 1554 1555 1556 1557
1415 1416 1414 1411 1410 1411 1414 1419 1419 1419 1419 1421 1422 1422 1423 1424 1424 1425 1425 1425 1425 1425 1425 1426 1427 1427 1428 1429 1431 1432 1434 1435 1436 1438 1440 1441 1444 1448 1451 1452 1454 1458 1461 1464 1467 1470 1473 1475 1478 1480 1482 1485 1488 1491 1494 1497 1499 1501 1503 1505 1508 1511 1513 1516 1519 1521 1524 1526 1528 1530 1532 1534 1536 1538 1540 1543 1546 1547 1549 1551 1551 1552 1553 1554 1555 1556
1414 1416 1415 1415 1416 1418 1421 1424 1423 1421 1423 1424 1423 1423 1425 1425 1425 1426 1426 1425 1425 1426 1426 1427 1428 1428 1429 1430 1431 1433 1435 1436 1437 1439 1440 1442 1444 1447 1450 1452 1455 1458 1462 1465 1468 1471 1473 1475 1477 1480 1482 1485 1487 1490 1493 1495 1498 1500 1502 1505 1508 1510 1512 1515 1518 1521 1523 1525 1527 1529 1531 1532 1535 1538 1540 1543 1544 1546 1547 1549 1550 1550 1552 1553 1554 1555
1417 1418 1418 1419 1422 1423 1423 1423 1423 1423 1424 1425 1424 1425 1425 1426 1426 1427 1426 1426 1426 1427 1427 1428 1429 1429 1430 1431 1432 1434 1435 1436 1437 1439 1440 1443 1445 1447 1448 1451 1454 1457 1461 1464 1467 1470 1473 1475 1477 1479 1481 1483 1486 1489 1491 1494 1496 1498 1501 1504 1507 1509 1511 1514 1517 1519 1522 1524 1526 1528 1530 1532 1534 1537 1540 1542 1543 1545 1546 1548 1549 1549 1551 1552 1553 1554